Meteo pe oră la Dzierzazna

Astăzi, 24 Februarie, Miercuri

Timp Temperatura Precipitaţii Vânt Presiune Umiditate
00:00 +9°C° 0 mm 2 m/s 773 mmHg 90%
01:00 +9°C° 0 mm 2 m/s 773 mmHg 91%
02:00 +9°C° 0 mm 2 m/s 773 mmHg 91%
03:00 +8°C° 0 mm 2 m/s 773 mmHg 91%
04:00 +8°C° 0 mm 3 m/s 773 mmHg 91%
05:00 +8°C° 0 mm 2 m/s 773 mmHg 91%
06:00 +8°C° 0 mm 2 m/s 773 mmHg 92%
07:00 +8°C° 0 mm 2 m/s 773 mmHg 90%
08:00 +9°C° 0 mm 3 m/s 772 mmHg 86%
09:00 +10°C° 0 mm 3 m/s 772 mmHg 82%
10:00 +12°C° 0 mm 3 m/s 772 mmHg 78%
11:00 +13°C° 0 mm 3 m/s 772 mmHg 75%
12:00 +14°C° 0 mm 3 m/s 772 mmHg 71%
13:00 +17°C° 0 mm 3 m/s 772 mmHg 68%
14:00 +17°C° 0 mm 3 m/s 772 mmHg 70%
15:00 +17°C° 0 mm 2 m/s 771 mmHg 72%
16:00 +17°C° 0 mm 2 m/s 771 mmHg 73%
17:00 +15°C° 0 mm 2 m/s 771 mmHg 78%
18:00 +14°C° 0 mm 2 m/s 771 mmHg 84%
19:00 +12°C° 0 mm 2 m/s 771 mmHg 89%
20:00 +12°C° 0 mm 2 m/s 771 mmHg 89%
21:00 +12°C° 0 mm 2 m/s 771 mmHg 90%
22:00 +10°C° 0 mm 2 m/s 771 mmHg 91%
23:00 +10°C° 0 mm 2 m/s 771 mmHg 91%

Mâine, 25 Februarie, Joi

Timp Temperatura Precipitaţii Vânt Presiune Umiditate
00:00 +9°C° 0 mm 2 m/s 771 mmHg 92%
01:00 +9°C° 0 mm 2 m/s 771 mmHg 92%
02:00 +9°C° 0 mm 2 m/s 771 mmHg 92%
03:00 +9°C° 0 mm 2 m/s 770 mmHg 92%
04:00 +8°C° 0 mm 2 m/s 770 mmHg 93%
05:00 +8°C° 0 mm 2 m/s 770 mmHg 92%
06:00 +8°C° 0 mm 2 m/s 770 mmHg 92%
07:00 +7°C° 0 mm 3 m/s 770 mmHg 92%
08:00 +9°C° 0 mm 3 m/s 769 mmHg 85%
09:00 +11°C° 0 mm 3 m/s 769 mmHg 78%
10:00 +12°C° 0 mm 3 m/s 768 mmHg 71%
11:00 +14°C° 0 mm 4 m/s 768 mmHg 67%
12:00 +15°C° 0 mm 4 m/s 768 mmHg 63%
13:00 +18°C° 0 mm 4 m/s 768 mmHg 58%
14:00 +17°C° 0 mm 4 m/s 768 mmHg 60%
15:00 +17°C° 0 mm 3 m/s 767 mmHg 61%
16:00 +17°C° 0 mm 3 m/s 767 mmHg 63%
17:00 +14°C° 0 mm 3 m/s 767 mmHg 69%
18:00 +13°C° 0 mm 3 m/s 768 mmHg 76%
19:00 +12°C° 0 mm 2 m/s 768 mmHg 83%
20:00 +12°C° 0 mm 2 m/s 768 mmHg 85%
21:00 +10°C° 0 mm 2 m/s 768 mmHg 88%
22:00 +10°C° 0 mm 2 m/s 769 mmHg 91%
23:00 +9°C° 0 mm 2 m/s 769 mmHg 91%

Poimâine, 26 Februarie, Vineri

Timp Temperatura Precipitaţii Vânt Presiune Umiditate
00:00 +9°C° 0 mm 2 m/s 769 mmHg 92%
01:00 +8°C° 0 mm 2 m/s 769 mmHg 93%
02:00 +8°C° 0 mm 2 m/s 769 mmHg 94%
03:00 +8°C° 0 mm 2 m/s 769 mmHg 94%
04:00 +9°C° 0 mm 1 m/s 769 mmHg 95%
05:00 +9°C° 0.1 mm 1 m/s 769 mmHg 95%
06:00 +8°C° 0.1 mm 1 m/s 769 mmHg 96%
07:00 +8°C° 0.1 mm 1 m/s 769 mmHg 96%
08:00 +7°C° 0.3 mm 2 m/s 769 mmHg 95%
09:00 +7°C° 0.3 mm 2 m/s 769 mmHg 93%
10:00 +7°C° 0.3 mm 2 m/s 769 mmHg 92%
11:00 +8°C° 0.1 mm 3 m/s 770 mmHg 84%
12:00 +9°C° 0.1 mm 3 m/s 770 mmHg 76%
13:00 +10°C° 0.1 mm 4 m/s 770 mmHg 67%
14:00 +10°C° 0 mm 3 m/s 770 mmHg 66%
15:00 +10°C° 0 mm 3 m/s 769 mmHg 65%
16:00 +10°C° 0 mm 3 m/s 769 mmHg 64%
17:00 +8°C° 0 mm 3 m/s 769 mmHg 69%
18:00 +7°C° 0 mm 3 m/s 770 mmHg 74%
19:00 +5°C° 0 mm 3 m/s 770 mmHg 79%
20:00 +5°C° 0 mm 3 m/s 770 mmHg 79%
21:00 +5°C° 0 mm 3 m/s 770 mmHg 79%
22:00 +5°C° 0 mm 3 m/s 770 mmHg 78%
23:00 +5°C° 0 mm 4 m/s 770 mmHg 80%

27 Februarie, Sâmbătă

Timp Temperatura Precipitaţii Vânt Presiune Umiditate
00:00 +4°C° 0 mm 4 m/s 770 mmHg 82%
01:00 +4°C° 0 mm 4 m/s 771 mmHg 84%
02:00 +4°C° 0 mm 4 m/s 770 mmHg 87%
03:00 +3°C° 0 mm 4 m/s 770 mmHg 90%
04:00 +1°C° 0 mm 4 m/s 770 mmHg 92%
05:00 +1°C° 0 mm 4 m/s 770 mmHg 92%
06:00 +1°C° 0 mm 4 m/s 771 mmHg 91%
07:00 +1°C° 0 mm 4 m/s 771 mmHg 90%
08:00 +3°C° 0 mm 4 m/s 771 mmHg 88%
09:00 +3°C° 0 mm 4 m/s 772 mmHg 85%
10:00 +4°C° 0 mm 4 m/s 772 mmHg 83%
11:00 +4°C° 0 mm 4 m/s 772 mmHg 80%
12:00 +5°C° 0 mm 4 m/s 773 mmHg 77%
13:00 +6°C° 0 mm 4 m/s 773 mmHg 74%
14:00 +6°C° 0 mm 4 m/s 773 mmHg 72%
15:00 +7°C° 0 mm 3 m/s 773 mmHg 71%
16:00 +7°C° 0 mm 3 m/s 773 mmHg 70%
17:00 +5°C° 0 mm 3 m/s 773 mmHg 74%
18:00 +5°C° 0 mm 2 m/s 774 mmHg 78%
19:00 +5°C° 0 mm 1 m/s 774 mmHg 82%
20:00 +4°C° 0 mm 1 m/s 774 mmHg 83%
21:00 +3°C° 0 mm 1 m/s 774 mmHg 84%
22:00 +3°C° 0 mm 1 m/s 775 mmHg 86%
23:00 +3°C° 0 mm 1 m/s 775 mmHg 87%

28 Februarie, Duminică

Timp Temperatura Precipitaţii Vânt Presiune Umiditate
00:00 +2°C° 0 mm 1 m/s 775 mmHg 88%
01:00 +1°C° 0 mm 0 m/s 775 mmHg 89%
02:00 +1°C° 0 mm 0 m/s 775 mmHg 88%
03:00 +2°C° 0 mm 1 m/s 775 mmHg 88%
04:00 +1°C° 0 mm 1 m/s 775 mmHg 88%
05:00 +1°C° 0 mm 1 m/s 775 mmHg 88%
06:00 +1°C° 0 mm 1 m/s 775 mmHg 87%
07:00 +1°C° 0 mm 1 m/s 775 mmHg 86%
08:00 +3°C° 0 mm 1 m/s 775 mmHg 79%
09:00 +4°C° 0 mm 1 m/s 775 mmHg 72%
10:00 +6°C° 0 mm 1 m/s 775 mmHg 64%
11:00 +7°C° 0 mm 1 m/s 775 mmHg 60%
12:00 +8°C° 0 mm 1 m/s 775 mmHg 55%
13:00 +9°C° 0 mm 1 m/s 775 mmHg 51%
14:00 +9°C° 0 mm 1 m/s 774 mmHg 51%
15:00 +9°C° 0 mm 1 m/s 774 mmHg 52%
16:00 +9°C° 0 mm 1 m/s 774 mmHg 52%
17:00 +7°C° 0 mm 1 m/s 774 mmHg 57%
18:00 +5°C° 0 mm 0 m/s 774 mmHg 63%
19:00 +3°C° 0 mm 0 m/s 774 mmHg 68%
20:00 +3°C° 0 mm 0 m/s 774 mmHg 69%
21:00 +2°C° 0 mm 0 m/s 774 mmHg 71%
22:00 +2°C° 0 mm 0 m/s 775 mmHg 73%
23:00 +2°C° 0 mm 0 m/s 775 mmHg 74%

1 Martie, Luni

Timp Temperatura Precipitaţii Vânt Presiune Umiditate
00:00 +2°C° 0 mm 0 m/s 775 mmHg 75%
01:00 +1°C° 0 mm 0 m/s 775 mmHg 76%
02:00 +1°C° 0 mm 0 m/s 775 mmHg 76%
03:00 +1°C° 0 mm 0 m/s 774 mmHg 77%
04:00 +1°C° 0 mm 0 m/s 774 mmHg 77%
05:00 +1°C° 0 mm 0 m/s 774 mmHg 77%
06:00 +1°C° 0 mm 0 m/s 775 mmHg 77%
07:00 +1°C° 0 mm 0 m/s 775 mmHg 78%
08:00 +3°C° 0 mm 1 m/s 775 mmHg 71%
09:00 +5°C° 0 mm 1 m/s 775 mmHg 64%
10:00 +7°C° 0 mm 1 m/s 775 mmHg 57%
11:00 +8°C° 0 mm 1 m/s 775 mmHg 53%
12:00 +8°C° 0 mm 2 m/s 775 mmHg 49%
13:00 +9°C° 0 mm 2 m/s 775 mmHg 46%
14:00 +9°C° 0 mm 2 m/s 775 mmHg 48%
15:00 +9°C° 0 mm 2 m/s 774 mmHg 50%
16:00 +9°C° 0 mm 2 m/s 774 mmHg 53%
17:00 +7°C° 0 mm 2 m/s 774 mmHg 58%
18:00 +6°C° 0 mm 2 m/s 774 mmHg 64%
19:00 +4°C° 0 mm 2 m/s 774 mmHg 70%
20:00 +4°C° 0 mm 2 m/s 775 mmHg 72%
21:00 +3°C° 0 mm 2 m/s 775 mmHg 75%
22:00 +3°C° 0 mm 2 m/s 775 mmHg 78%
23:00 +2°C° 0 mm 2 m/s 775 mmHg 79%
Arată mai mult

Formular de consimțământ

Meteoprog și furnizorii noștri de servicii pot stoca și accesa date personale, precum cookies, identificatori de dispozitiv sau alte tehnologii similare pe dispozitivul dumneavoastră și procesa astfel de date pentru a personaliza conținutul și reclamele, dar și pentru a oferi caracteristici de social media și pentru a analiza traficul.

  • Stocarea și/sau accesarea informațiilor pe dispozitivul dumneavoastră

    Cookies, identificatori de dispozitiv sau alte informații pot fi stocate sau accesate pe dispozitiv în scopurile indicate mai sus.

  • Reclame și conținut personalizat, evaluarea reclamelor și a conținutului, informații despre audiențe și dezvoltarea produselor

    Reclamele și conținutul pot fi personalizate pe baza unui profil. Pot fi adăugate date suplimentare pentru a personaliza mai bine reclamele și conținutul. Performanța reclamelor și conținutului poate fi măsurată. Pot fi obținute informații despre utilizatorii care au văzut reclamele și conținutul. Aceste date pot fi utilizate pentru a dezvolta sau îmbunătăți experiența utilizatorilor, sistemele și software-ul.

Dând clic pe ‘Sunt de acord’, permiteți utilizarea cookie-urilor menționate, a identificatorilor de dispozitiv, balizelor web sau altor tehnologii similare. Setările pot fi modificate din browser-ul dispozitivului dumneavoastră.

În anumite scopuri, interesele legitime pot prima asupra consimțământului. Puteți citi mai multe informații în acest sens în Politica privind Confidențialitatea Datelor și Cookie.